FW8903 Weather Reports


time (UTC)temp
F
wind
direction
speed
knots
gust
knots
rain 1hr
in
rain 24hr
in
rain mn
in
humidity
%
barometer
mb
20260508121546 46 32 0.0 2.6 0.00 0.00 0.00 52 1024.7
20260508120045 46 150 0.0 0.9 0.00 0.00 0.00 58 1024.6
20260508114551 42 89 0.9 3.5 0.00 0.00 0.00 67 1024.7
20260508113043 46 294 1.7 7.0 0.00 0.00 0.00 50 1024.7
20260508111554 48 47 0.0 3.5 0.00 0.00 0.00 41 1024.2
20260508110037 48 63 0.0 4.3 0.00 0.00 0.00 44 1024.1
20260508104537 47 269 0.0 1.7 0.00 0.00 0.00 44 1024.2
20260508103037 47 249 0.0 0.9 0.00 0.00 0.00 44 1024.1
20260508101535 47 240 0.0 2.6 0.00 0.00 0.00 43 1023.9
20260508100033 48 233 0.0 1.7 0.00 0.00 0.00 44 1023.9
20260508094531 48 214 0.0 2.6 0.00 0.00 0.00 43 1023.9
20260508093031 47 39 1.7 6.1 0.00 0.00 0.00 46 1023.7
20260508091532 48 60 0.0 1.7 0.00 0.00 0.00 43 1023.7
20260508090025 45 249 0.0 0.9 0.00 0.00 0.00 48 1023.6
20260508084522 44 236 0.0 2.6 0.00 0.00 0.00 52 1023.6
20260508083021 44 59 0.0 0.0 0.00 0.00 0.00 50 1023.4
20260508081519 44 311 0.0 1.7 0.00 0.00 0.00 51 1023.4
20260508080023 44 300 0.0 1.7 0.00 0.00 0.00 51 1023.3
20260508074518 44 45 0.0 6.1 0.00 0.00 0.00 50 1023.1
20260508073014 43 128 0.0 2.6 0.00 0.00 0.00 53 1023.1
20260508071511 44 324 0.0 3.5 0.00 0.00 0.00 56 1023.0
20260508070009 44 248 0.0 3.5 0.00 0.00 0.00 58 1022.8
20260508064504 42 248 0.0 0.0 0.00 0.00 0.00 62 1022.9
20260508063105 42 281 0.0 1.7 0.00 0.00 0.00 65 1022.8
20260508061604 41 147 0.0 0.0 0.00 0.00 0.00 68 1022.7
20260508060053 40 245 0.0 0.9 0.00 0.00 0.00 69 1022.6
20260508054550 40 301 0.0 0.9 0.00 0.00 0.00 71 1022.4
20260508053056 39 225 0.0 0.0 0.00 0.00 0.00 73 1022.3
20260508051547 39 328 0.0 0.0 0.00 0.00 0.00 74 1022.1
20260508050041 38 122 0.0 0.0 0.00 0.00 0.00 76 1022.0
20260508044538 37 311 0.0 0.0 0.00 0.00 0.00 78 1021.9
20260508043034 37 314 0.0 0.0 0.00 0.00 0.00 81 1021.8
20260508041534 37 314 0.0 0.0 0.00 0.00 0.00 84 1021.7
20260508040030 34 15 0.0 0.0 0.00 0.00 0.00 88 1021.6
20260508034529 31 15 0.0 0.0 0.00 0.00 0.00 92 1021.5
20260508033019 29 15 0.0 0.0 0.00 0.00 0.00 93 1021.5
20260508031521 29 15 0.0 0.0 0.00 0.00 0.00 92 1021.4
20260508030019 29 19 0.0 0.0 0.00 0.00 0.00 94 1021.3
20260508024515 27 18 0.0 0.0 0.00 0.00 0.00 94 1021.2
20260508023012 26 17 0.0 0.0 0.00 0.00 0.00 95 1021.1
20260508021511 26 18 0.0 0.0 0.00 0.00 0.00 94 1021.0
20260508020013 26 19 0.0 0.0 0.00 0.00 0.00 94 1020.9
20260508014511 26 314 0.0 0.0 0.00 0.00 0.00 94 1020.9
20260508013009 26 315 0.0 0.0 0.00 0.00 0.00 93 1020.7
20260508011610 27 6 0.0 0.0 0.00 0.00 0.00 93 1020.7
20260508010003 28 351 0.0 0.0 0.00 0.00 0.00 93 1020.6
20260508004504 28 348 0.0 0.0 0.00 0.00 0.00 93 1020.5
20260508003100 28 13 0.0 0.0 0.00 0.00 0.00 92 1020.4
20260508001559 28 345 0.0 0.0 0.00 0.00 0.00 92 1020.3
20260508000059 28 42 0.0 0.0 0.00 0.00 0.00 92 1020.1
20260507234558 28 56 0.0 0.0 0.00 0.00 0.00 92 1019.9
20260507233053 28 80 0.0 0.0 0.00 0.00 0.00 92 1019.7
20260507231552 28 124 0.0 0.0 0.00 0.00 0.00 92 1019.5
20260507230050 28 123 0.0 0.0 0.00 0.00 0.00 92 1019.5
20260507224549 28 156 0.0 0.0 0.00 0.00 0.00 92 1019.3
20260507223051 28 156 0.0 0.0 0.00 0.00 0.00 92 1019.2
20260507221545 27 156 0.0 0.0 0.00 0.00 0.00 92 1019.1
20260507220043 28 156 0.0 0.0 0.00 0.00 0.00 92 1018.9
20260507214541 28 156 0.0 0.0 0.00 0.00 0.00 91 1018.8
20260507213046 29 156 0.0 0.0 0.00 0.00 0.00 91 1018.7
20260507211538 28 156 0.0 0.0 0.00 0.00 0.00 91 1018.5
20260507210037 28 13 0.0 0.0 0.00 0.00 0.00 91 1018.4
20260507204534 28 13 0.0 0.0 0.00 0.00 0.00 90 1018.3
20260507203035 29 13 0.0 0.0 0.00 0.00 0.00 89 1018.2
20260507201533 30 13 0.0 0.0 0.00 0.00 0.00 89 1018.1
20260507200030 30 13 0.0 0.0 0.00 0.00 0.00 87 1017.9
20260507194532 31 13 0.0 0.0 0.00 0.00 0.00 87 1017.9
20260507193029 32 13 0.0 0.0 0.00 0.00 0.00 85 1017.7
20260507191526 33 13 0.0 0.0 0.00 0.00 0.00 83 1017.6
20260507190024 35 13 0.0 0.0 0.00 0.00 0.00 81 1017.4
20260507184524 36 13 0.0 0.0 0.00 0.00 0.00 77 1017.3
20260507183021 38 13 0.0 0.0 0.00 0.00 0.00 74 1017.2
20260507181520 40 82 0.0 0.0 0.00 0.00 0.00 71 1017.0
20260507180023 40 98 0.0 0.9 0.00 0.00 0.00 70 1016.8
20260507174519 41 75 0.0 0.0 0.00 0.00 0.00 67 1016.8
20260507173027 41 75 0.0 0.0 0.00 0.00 0.00 69 1016.8
20260507171516 41 205 0.0 0.0 0.00 0.00 0.00 70 1016.7
20260507170016 40 304 0.0 0.0 0.00 0.00 0.00 75 1016.6
20260507164515 39 195 0.0 0.0 0.00 0.00 0.00 77 1016.6
20260507163013 39 295 0.0 2.6 0.00 0.00 0.00 76 1016.6
20260507161520 40 226 0.0 0.0 0.00 0.00 0.00 77 1016.5
20260507160013 40 163 0.0 0.9 0.00 0.00 0.00 77 1016.4
20260507154510 40 244 0.0 0.9 0.00 0.00 0.00 78 1016.2
20260507153008 41 250 0.0 0.0 0.00 0.00 0.00 76 1016.1
20260507151507 43 235 0.0 0.9 0.00 0.00 0.00 72 1015.9
20260507150006 43 257 0.0 2.6 0.00 0.00 0.00 69 1015.9
20260507144505 42 228 0.0 0.9 0.00 0.00 0.00 73 1015.8
20260507143006 42 249 0.0 0.0 0.00 0.00 0.00 71 1015.7
20260507141503 43 323 0.0 2.6 0.00 0.00 0.00 73 1015.8
20260507140006 41 269 0.0 2.6 0.00 0.00 0.00 77 1015.7
20260507134503 41 173 0.0 0.9 0.00 0.00 0.00 76 1015.7
20260507133003 40 225 0.0 0.9 0.00 0.00 0.00 76 1015.7
20260507131559 41 229 0.0 2.6 0.00 0.00 0.00 74 1015.6
20260507130109 42 236 0.0 2.6 0.00 0.00 0.00 72 1015.4
20260507124606 44 201 0.0 2.6 0.00 0.00 0.00 67 1015.4
20260507123056 43 84 0.0 3.5 0.00 0.00 0.00 61 1015.3